Погода в Чокурдахе

Россия / Республика Саха (Якутия)     70°37′14″N   147°54′02″E
темп.,
°C
ветер,
м/с
пор.,
м/с
влажн.,
%
обл.,
%
осадки,
мм/ч
давл.,
гПа
погр.,
м
1 марта, пн
пн123:00−33ю11990 0.0 102919
02:00−34юв0110059 0.0 102719
05:00−34всв1110036 0.0 102719
08:00−35в11990 0.0 102719
11:00−33всв11930 0.0 102619
14:00−31св22920 0.0 102520
17:00−32св23931 0.0 102420
20:00−32св239632 0.0 102419
2 марта, вт
вт223:00−31св239827 0.0 102419
02:00−31св239835 0.0 102419
05:00−32св239717 0.0 102420
08:00−32всв239561 0.0 102519
11:00−32всв229366 0.0 102619
14:00−31всв229250 0.0 102719
17:00−33всв129342 0.0 102719
20:00−34в129677 0.0 102819
3 марта, ср
ср323:00−35юв119968 0.0 102919
02:00−37ю1110038 0.0 102919
05:00−37всв1110034 0.0 102819
08:00−37св1110027 0.0 102819
11:00−35св229531 0.0 102719
14:00−33всв359588 0.0 1025131
17:00−34всв359494 0.0 1023102
20:00−34всв3593100 0.0 102289
4 марта, чт
чт423:00−34всв3493100 0.0 102099
02:00−36св3492100 0.0 101857
05:00−36св349699 0.0 101672
08:00−32с5998100 0.0 1013285
11:00−28ссв71395100 0.1 1009413
14:00−26ссв91594100 0.0 1006523
17:00−24с101692100 0.1 1003690
20:00−23ссв101796100 0.4 1002743
5 марта, пт
пт523:00−23с111796100 1.3 1000823
02:00−23с111696100 1.3 1000830
05:00−22с101696100 2.3 1000899
08:00−23с101596100 0.7 1000935
11:00−22с101496100 1.4 10011010
14:00−22с101496100 0.8 10021005
17:00−21с101495100 1.6 1003928
20:00−20с91495100 0.5 1004913